K9APR Weather Reports


time (UTC)temp
C
wind
direction
speed
KPH
gust
KPH
rain 1hr
cm
rain 24hr
cm
rain mn
cm
humidity
%
barometer
mb
20260504081121 11 153 8.0 8.0 0.00 0.00 0.00 68 1010.2
20260504080220 10 141 4.8 9.7 0.00 0.00 0.00 68 1010.4
20260504050221 11 142 8.0 12.9 0.00 0.00 0.00 64 1012.0
20260504045320 11 136 4.8 11.3 0.00 0.00 0.00 64 1012.0
20260504044421 11 158 9.7 11.3 0.00 0.00 0.00 64 1012.0
20260504043520 11 159 4.8 8.0 0.00 0.00 0.00 64 1012.1
20260504042620 11 138 3.2 8.0 0.00 0.00 0.00 63 1012.2
20260504041720 11 173 9.7 19.3 0.00 0.00 0.00 63 1012.3
20260504040819 12 130 3.2 4.8 0.00 0.00 0.00 64 1012.4
20260504035920 12 147 8.0 11.3 0.00 0.00 0.00 63 1012.5
20260504035022 12 132 4.8 8.0 0.00 0.00 0.00 62 1012.6
20260504034120 12 168 1.6 4.8 0.00 0.00 0.00 62 1012.7
20260504033220 12 133 4.8 9.7 0.00 0.00 0.00 61 1012.8
20260504032320 12 164 4.8 8.0 0.00 0.00 0.00 61 1012.9
20260504031420 12 144 9.7 12.9 0.00 0.00 0.00 60 1012.9
20260504030520 12 140 8.0 9.7 0.00 0.00 0.00 60 1012.8
20260504025620 12 145 4.8 8.0 0.00 0.00 0.00 59 1013.0
20260504024719 12 168 4.8 14.5 0.00 0.00 0.00 59 1013.0
20260504023821 12 152 4.8 4.8 0.00 0.00 0.00 58 1013.1
20260504022921 13 156 4.8 9.7 0.00 0.00 0.00 57 1013.2
20260504022027 13 161 3.2 8.0 0.00 0.00 0.00 57 1013.2
20260504022020 13 161 3.2 8.0 0.00 0.00 0.00 57 1013.2
20260504021119 13 155 3.2 4.8 0.00 0.00 0.00 55 1013.3
20260504020219 13 135 3.2 4.8 0.00 0.00 0.00 55 1013.3
20260504015319 13 157 1.6 4.8 0.00 0.00 0.00 55 1013.2
20260504014420 13 149 9.7 9.7 0.00 0.00 0.00 54 1013.3
20260504013519 13 164 4.8 11.3 0.00 0.00 0.00 53 1013.3
20260504012620 13 187 3.2 4.8 0.00 0.00 0.00 53 1013.2
20260504011720 13 162 4.8 11.3 0.00 0.00 0.00 53 1013.4
20260504010819 13 157 3.2 4.8 0.00 0.00 0.00 53 1013.3
20260504005920 13 160 3.2 4.8 0.00 0.00 0.00 53 1013.2
20260504005019 13 160 1.6 4.8 0.00 0.00 0.00 53 1013.3
20260504003219 13 168 3.2 3.2 0.00 0.00 0.00 52 1013.3
20260504002321 13 234 3.2 4.8 0.00 0.00 0.00 52 1013.2
20260504001421 14 215 4.8 8.0 0.00 0.00 0.00 51 1013.3
20260504000520 14 219 4.8 4.8 0.00 0.00 0.00 50 1013.1
20260503235619 14 167 4.8 8.0 0.00 0.00 0.00 49 1013.2
20260503234720 14 201 9.7 16.1 0.00 0.00 0.00 48 1013.1
20260503233819 14 186 9.7 8.0 0.00 0.00 0.00 48 1013.0
20260503232920 14 174 4.8 9.7 0.00 0.00 0.00 48 1013.1
20260503232019 14 150 11.3 19.3 0.00 0.00 0.00 47 1013.2
20260503231120 14 151 12.9 14.5 0.00 0.00 0.00 47 1013.1
20260503230220 14 217 11.3 19.3 0.00 0.00 0.00 47 1013.3
20260503225319 14 203 8.0 11.3 0.00 0.00 0.00 49 1013.4
20260503224420 14 207 9.7 14.5 0.00 0.00 0.00 49 1013.4
20260503223520 14 154 4.8 12.9 0.00 0.00 0.00 51 1013.6
20260503222620 14 181 12.9 14.5 0.00 0.00 0.00 51 1013.8
20260503221720 13 172 14.5 22.5 0.00 0.00 0.00 51 1014.1
20260503215921 12 93 3.2 9.7 0.00 0.00 0.00 66 1014.3
20260503215603 12 100 1.6 4.8 0.00 0.00 0.00 68 1014.5
20260503214705 12 108 0.0 1.6 0.00 0.00 0.00 67 1014.6
20260503213803 11 65 1.6 3.2 0.00 0.00 0.00 68 1014.8
20260503212904 11 93 3.2 4.8 0.00 0.00 0.00 66 1015.0
20260503212004 11 1 0.0 3.2 0.00 0.00 0.00 71 1015.1
20260503211104 11 74 1.6 3.2 0.00 0.00 0.00 69 1015.1
20260503210204 11 104 1.6 1.6 0.00 0.00 0.00 70 1015.3
20260503204403 11 91 1.6 3.2 0.00 0.00 0.00 71 1015.5
20260503203503 10 261 0.0 1.6 0.00 0.00 0.00 76 1015.8
20260503202603 9 32 0.0 3.2 0.00 0.00 0.00 77 1016.0
20260503201703 9 39 0.0 0.0 0.00 0.00 0.00 73 1016.5
20260503200803 10 233 0.0 3.2 0.00 0.00 0.00 69 1016.9
20260503195903 10 355 1.6 3.2 0.00 0.00 0.00 64 1017.5
20260503195005 12 220 11.3 19.3 0.00 0.00 0.00 56 1017.9
20260503194104 12 217 19.3 25.7 0.00 0.00 0.00 49 1017.3
20260503193203 13 234 14.5 20.9 0.00 0.00 0.00 43 1016.9
20260503192305 13 253 4.8 11.3 0.00 0.00 0.00 43 1016.5
20260503191406 13 238 8.0 19.3 0.00 0.00 0.00 42 1016.6
20260503190503 14 221 11.3 12.9 0.00 0.00 0.00 40 1016.8
20260503185604 15 249 9.7 16.1 0.00 0.00 0.00 40 1017.0
20260503184705 15 222 9.7 12.9 0.00 0.00 0.00 41 1017.2
20260503183804 15 256 11.3 22.5 0.00 0.00 0.00 40 1017.3
20260503182903 15 212 12.9 27.4 0.00 0.00 0.00 42 1017.5
20260503182003 15 216 16.1 20.9 0.00 0.00 0.00 40 1017.6
20260503181104 15 250 16.1 19.3 0.00 0.00 0.00 41 1017.7
20260503180203 15 199 11.3 19.3 0.00 0.00 0.00 43 1017.7
20260503175305 15 231 11.3 12.9 0.00 0.00 0.00 43 1017.8
20260503174404 14 262 9.7 19.3 0.00 0.00 0.00 41 1018.0
20260503173503 14 234 11.3 24.1 0.00 0.00 0.00 44 1018.1
20260503172603 14 194 14.5 22.5 0.00 0.00 0.00 43 1018.1
20260503171704 13 210 12.9 25.7 0.00 0.00 0.00 42 1018.3
20260503170804 14 215 19.3 27.4 0.00 0.00 0.00 40 1018.4
20260503150203 12 242 9.7 25.7 0.00 0.00 0.00 53 1019.9
20260503131403 7 250 3.2 8.0 0.00 0.00 0.00 67 1020.0
20260503130504 7 243 3.2 9.7 0.00 0.00 0.00 70 1020.2
20260503120204 2 246 1.6 3.2 0.00 0.00 0.00 81 1020.3